Location: Perryvale
(54.4667°N, 113.3833°W)
Time: 03:11:34
(UTC+00:00)

Vanguard 1 - All Passes

Search period start: 21 May 2024 00:00
Search period end: 31 May 2024 00:00
Orbit: 651 x 3826 km, 34.2° (Epoch: 19 May)

Date Brightness Start Highest point End Pass type
(mag) Time Alt. Az. Time Alt. Az. Time Alt. Az.
21 May - 03:08:08 10° S 03:15:18 19° SE 03:25:08 10° ESE daylight
21 May - 05:23:49 10° SW 05:35:01 34° SSE 05:52:03 10° ESE visible
21 May - 07:42:59 10° WSW 07:56:53 36° S 08:15:53 10° SE visible
21 May - 10:05:27 10° WSW 10:19:05 24° SW 10:34:44 10° S visible
22 May - 03:26:44 10° S 03:34:37 22° SE 03:46:00 10° ESE daylight
22 May - 05:43:23 10° SW 05:54:45 35° S 06:12:05 10° ESE visible
22 May - 08:03:03 10° WSW 08:16:44 33° SSW 08:35:05 10° SE visible
22 May - 10:26:43 10° WSW 10:38:37 19° SW 10:52:01 10° S visible
23 May - 03:45:41 10° SSW 03:54:02 26° SSE 04:06:32 10° ESE daylight
23 May - 06:03:05 10° SW 06:14:33 35° S 06:31:57 10° ESE visible
23 May - 08:23:16 10° WSW 08:36:32 30° SSW 08:53:59 10° SSE visible
23 May - 10:49:01 10° WSW 10:58:05 15° SW 11:08:00 10° SSW daylight
24 May - 01:52:39 10° SE 01:55:00 11° SE 01:57:37 10° ESE daylight
24 May - 04:04:53 10° SSW 04:13:33 28° SSE 04:26:53 10° ESE daylight
24 May - 06:22:52 10° WSW 06:34:22 34° S 06:51:38 10° SE visible
24 May - 08:43:43 10° WSW 08:56:18 26° SSW 09:12:26 10° SSE visible
24 May - 11:16:37 10° SW 11:17:29 10° SW 11:18:22 10° SW daylight
25 May - 02:09:35 10° SSE 02:14:12 14° SE 02:20:02 10° ESE daylight
25 May - 04:24:16 10° SW 04:33:10 30° SSE 04:47:04 10° ESE visible
25 May - 06:42:47 10° WSW 06:54:12 32° S 07:11:05 10° SE visible
25 May - 09:04:30 10° WSW 09:16:01 22° SSW 09:30:20 10° S visible
26 May - 02:27:52 10° S 02:33:29 18° SE 02:41:09 10° ESE daylight
26 May - 04:43:48 10° SW 04:52:51 31° S 05:07:04 10° ESE visible
26 May - 07:02:50 10° WSW 07:14:03 30° SSW 07:30:15 10° SE visible
26 May - 09:25:52 10° WSW 09:35:41 17° SW 09:47:23 10° S visible
27 May - 02:46:41 10° SSW 02:52:53 20° SSE 03:01:47 10° ESE daylight
27 May - 05:03:27 10° SW 05:12:36 31° S 05:26:55 10° SE visible
27 May - 07:23:03 10° WSW 07:33:53 26° SSW 07:49:04 10° SSE visible
27 May - 09:48:37 10° WSW 09:55:17 13° SW 10:02:43 10° SSW visible
28 May - 03:05:48 10° SSW 03:12:23 23° SSE 03:22:08 10° ESE daylight
28 May - 05:23:14 10° SW 05:32:23 30° S 05:46:33 10° SE visible
28 May - 07:43:31 10° WSW 07:53:41 23° SSW 08:07:25 10° SSE visible
29 May - 03:25:08 10° SSW 03:31:57 24° SSE 03:42:18 10° ESE daylight
29 May - 05:43:08 10° WSW 05:52:12 28° S 06:05:57 10° SE visible
29 May - 08:04:25 10° WSW 08:13:28 19° SSW 08:25:06 10° S visible
30 May - 01:29:44 10° SSE 01:32:49 13° SE 01:36:31 10° ESE daylight
30 May - 03:44:37 10° SW 03:51:36 25° SSE 04:02:16 10° ESE daylight
30 May - 06:03:12 10° WSW 06:12:02 25° SSW 06:25:03 10° SSE visible
30 May - 08:26:09 10° WSW 08:33:12 14° SSW 08:41:40 10° S visible
